Location: Middle Street
(51.7167°N, 0.0333°E)
Time: 03:20:07
(UTC+00:00)

CREW DRAGON DEMO-1 DEB - Pass Details

Date: 20 January 2021
Orbit: 336 x 340 km, 51.6° (Epoch: 24 February)

Event Time Altitude Azimuth Distance (km) Brightness Sun altitude
Rises 17:22:59 0° 274° (W) 2,175 8.0 -8.4°
Reaches altitude 10° 17:25:01 10° 274° (W) 1,326 6.7 -8.7°
Maximum altitude 17:27:59 88° 185° (S) 357 2.7 -9.2°
Enters shadow 17:30:37 12° 97° (E) 1,194 4.8 -9.5°
